Location: Notre Dame Regional High School Observatory
(37.3056°N, 89.6097°W)
Time: 11:23:51
(UTC-05:00)

Okean 2 Rocket - Visible Passes

Search period start: 31 October 2014 00:00
Search period end: 09 November 2014 23:00
Orbit: 618 x 643 km, 82.5° (Epoch: 31 October)

Date Brightness Start Highest point End Pass type
(mag) Time Alt. Az. Time Alt. Az. Time Alt. Az.
31 Oct 5.6 06:23:10 10° SE 06:26:46 25° E 06:30:23 10° NNE visible
01 Nov 4.0 06:43:21 10° S 06:47:37 55° E 06:51:56 10° NNE visible
01 Nov 4.2 18:33:30 10° NNW 18:37:50 50° W 18:42:10 10° SSW visible
02 Nov 5.8 17:55:06 10° NW 17:58:41 24° W 18:02:16 10° SW visible
03 Nov 6.0 04:48:48 10° SE 04:51:52 19° E 04:54:56 10° NE visible
03 Nov 6.6 18:17:59 10° WNW 18:19:24 11° W 18:20:50 10° WSW visible
04 Nov 4.6 05:08:36 10° SSE 05:12:40 39° E 05:16:46 10° NNE visible
05 Nov 3.1 05:29:12 10° S 05:33:35 87° E 05:38:01 10° N visible
05 Nov 5.3 17:19:46 10° NNW 17:23:46 32° W 17:27:46 10° SSW visible
06 Nov 6.3 04:14:46 10° ESE 04:16:59 14° E 04:19:12 10° NE visible
06 Nov 3.4 05:50:28 10° SSW 05:54:38 42° W 05:58:50 10° N visible
06 Nov 6.2 17:41:51 10° NW 17:44:33 16° W 17:47:14 10° WSW visible
07 Nov 5.1 04:33:58 10° SSE 04:37:43 29° E 04:41:31 10° NNE visible
08 Nov 3.5 04:54:16 10° S 04:58:35 62° E 05:02:58 10° NNE visible
09 Nov 3.0 05:15:15 10° SSW 05:19:35 59° W 05:23:57 10° N visible
